World > North America > United States > Mississippi

Hourly Prichard, MS Regional Weather

Feedback E-mail the Weather

Quick WX

Prichard, MS Weather Maps

°F °C°F °C
Prichard Weather Map
UTC Time: 7/3/2022, 21:25
Your Time:

Prichard, MS Regional Weather

Expires:202207032200;;629491
ASUS44 KJAN 032110
RWRMS 

MISSISSIPPI HOURLY WEATHER ROUNDUP
NATIONAL WEATHER SERVICE JACKSON MS
400 PM CDT SUN JUL 03 2022

NOTE: "FAIR: INDICATES FEW OR NO CLOUDS BELOW 12,000 FEET WITH NO
SIGNIFICANT WEATHER AND/OR OBSTRUCTIONS TO VISIBILITY.


MSZ001>002-007>008-010>013-018>021-025>028-034>036-032200-
NORTHWEST MISSISSIPPI
  
CITY           SKY/WX    TMP DP  RH WIND       PRES   REMARKS
BATESVILLE     FAIR      84  75  74 NW5       30.02F HX  92           
CLARKSDALE     MOSUNNY   86  79  79 S7        30.02F HX  99           
CLEVELAND      FAIR      81  75  80 W5        30.02F                  
GREENWOOD      PTSUNNY   88  75  65 SW6       30.03F HX  97           
GREENVILLE     CLOUDY    83  74  74 W6        30.02F                  
OLIVE BRANCH   PTSUNNY   90  75  62 S8        30.02S HX 100           
OXFORD         PTSUNNY   86  72  62 CALM      30.05S HX  92           
TUNICA         CLOUDY    85  76  74 S9        30.01S HX  94           
WINONA         PTSUNNY   84  75  74 S3        30.04F HX  92           
$$


SKY/WX - Weather  TMP - Temperature  DP - Dew Point  RH - Humidity
WIND - Wind Direction/Speed PRES - Barometric Pressure VSB - Visibility
WCI - Wind Chill Index E13G22 Wind - East Wind 13 mph/Gusts of 22 mph

Trending Headlines

Prichard Radar Loop



Prichard Quick Facts


National Two Day Weather Forecast


E-mail the Prichard Weather Forecast

Voice your opinion or tell us about page issues...